{"data":{"norad_id":59206,"epoch":"2026-05-25T00:23:11.412384Z","epoch_age_seconds":74395,"freshness":"FRESH","line1":"1 59206U 24046F   26145.01610431 -.00000927  00000+0 -19179-4 0  9992","line2":"2 59206  53.1593 160.9315 0001474  83.0607 277.0562 15.30177368124732","mean_motion":15.30177368,"eccentricity":0.0001474,"inclination_deg":53.1593,"raan_deg":160.9315,"arg_perigee_deg":83.0607,"mean_anomaly_deg":277.0562,"bstar":-1.9179e-5,"rev_number":12473,"period_min":94.106737566125,"perigee_km":474.27245126904,"apogee_km":476.29283938049,"semimajor_km":6853.4196453248,"source":"CELESTRAK","updated_at":"2026-05-25T13:38:18.864983Z"}}